EZY1617 ESGG-ESSA

Flight info

Callsign EZY1617
Flight time 0h 41m
Altitude 29000
Route LABAN N873 ARS T317 ELTOK
Aircraft A20N/M-SDE2E3FGHIRWXY/LB1

Departure

Time 2026-05-07 17:12
Airport Göteborg Landvetter Airport (ESGG)

Arrival

Time 2026-05-07 17:53
Airport Stockholm-Arlanda Airport (ESSA)
Time Latitude Longitude Altitude Speed Heading
2026-05-07 16:45 57.66780 12.29315 510 ft 0 kts 115°
2026-05-07 17:01 57.66780 12.29314 510 ft 0 kts 115°
2026-05-07 17:01 57.66782 12.29309 510 ft 1 kts 116°
2026-05-07 17:02 57.66786 12.29283 510 ft 2 kts 99°
2026-05-07 17:02 57.66787 12.29255 509 ft 2 kts 88°
2026-05-07 17:02 57.66786 12.29227 509 ft 2 kts 76°
2026-05-07 17:02 57.66781 12.29201 508 ft 2 kts 64°
2026-05-07 17:03 57.66774 12.29176 508 ft 2 kts 52°
2026-05-07 17:03 57.66764 12.29156 507 ft 2 kts 41°
2026-05-07 17:03 57.66753 12.29140 507 ft 1 kts 30°
2026-05-07 17:03 57.66740 12.29128 507 ft 2 kts 24°
2026-05-07 17:04 57.66735 12.29124 506 ft 0 kts 26°
2026-05-07 17:07 57.66738 12.29127 507 ft 1 kts 26°
2026-05-07 17:07 57.66770 12.29109 506 ft 9 kts 309°
2026-05-07 17:07 57.66835 12.28999 504 ft 17 kts 12°
2026-05-07 17:08 57.66959 12.29104 506 ft 19 kts 25°
2026-05-07 17:08 57.67078 12.29209 507 ft 18 kts 26°
2026-05-07 17:08 57.67194 12.29316 507 ft 18 kts 25°
2026-05-07 17:08 57.67303 12.29415 509 ft 13 kts 26°
2026-05-07 17:09 57.67363 12.29470 510 ft 7 kts 22°
2026-05-07 17:09 57.67413 12.29455 510 ft 8 kts 315°
2026-05-07 17:09 57.67446 12.29339 507 ft 11 kts 296°
2026-05-07 17:09 57.67459 12.29188 507 ft 12 kts 265°
2026-05-07 17:10 57.67429 12.29039 507 ft 12 kts 232°
2026-05-07 17:10 57.67392 12.28987 507 ft 0 kts 206°
2026-05-07 17:11 57.67381 12.28977 507 ft 17 kts 206°
2026-05-07 17:11 57.67010 12.28637 505 ft 98 kts 206°
2026-05-07 17:11 57.66189 12.27892 524 ft 158 kts 208°
2026-05-07 17:12 57.65163 12.26956 1016 ft 169 kts 209°
2026-05-07 17:12 57.64119 12.26004 1823 ft 167 kts 209°
2026-05-07 17:12 57.63078 12.25207 2500 ft 171 kts 192°
2026-05-07 17:12 57.61835 12.25522 2937 ft 194 kts 163°
2026-05-07 17:13 57.60513 12.26495 3408 ft 216 kts 159°
2026-05-07 17:13 57.59100 12.27604 4070 ft 226 kts 160°
2026-05-07 17:13 57.57755 12.29087 4745 ft 236 kts 135°
2026-05-07 17:13 57.56959 12.31746 5646 ft 241 kts 103°
2026-05-07 17:14 57.57015 12.34870 6276 ft 255 kts 71°
2026-05-07 17:14 57.57682 12.38030 6869 ft 271 kts 66°
2026-05-07 17:14 57.58456 12.41346 7450 ft 289 kts 66°
2026-05-07 17:14 57.59256 12.44873 8253 ft 297 kts 67°
2026-05-07 17:15 57.60034 12.48436 9154 ft 301 kts 68°
2026-05-07 17:15 57.60805 12.52042 10028 ft 306 kts 68°
2026-05-07 17:15 57.61621 12.55724 10789 ft 315 kts 62°
2026-05-07 17:15 57.62948 12.59113 11258 ft 333 kts 45°
2026-05-07 17:16 57.64647 12.62176 11707 ft 350 kts 41°
2026-05-07 17:16 57.66472 12.65311 12286 ft 363 kts 43°
2026-05-07 17:16 57.68323 12.68568 13064 ft 368 kts 43°
2026-05-07 17:16 57.70155 12.71884 13853 ft 372 kts 44°
2026-05-07 17:17 57.72008 12.75306 14612 ft 377 kts 44°
2026-05-07 17:17 57.73866 12.78781 15348 ft 381 kts 45°
2026-05-07 17:17 57.75754 12.82343 16074 ft 386 kts 45°
2026-05-07 17:17 57.77631 12.85902 16774 ft 390 kts 45°
2026-05-07 17:18 57.79549 12.89553 17464 ft 394 kts 45°
2026-05-07 17:18 57.81462 12.93201 18130 ft 399 kts 45°
2026-05-07 17:18 57.83426 12.96957 18789 ft 403 kts 45°
2026-05-07 17:18 57.85389 13.00717 19425 ft 407 kts 45°
2026-05-07 17:19 57.87384 13.04544 20050 ft 411 kts 45°
2026-05-07 17:19 57.89361 13.08344 20651 ft 415 kts 45°
2026-05-07 17:19 57.91388 13.12247 21248 ft 419 kts 45°
2026-05-07 17:19 57.93444 13.16213 21836 ft 423 kts 45°
2026-05-07 17:20 57.95482 13.20151 22402 ft 427 kts 45°
2026-05-07 17:20 57.97566 13.24186 22961 ft 431 kts 45°
2026-05-07 17:20 57.99633 13.28197 23500 ft 434 kts 45°
2026-05-07 17:20 58.01760 13.32331 24028 ft 438 kts 45°
2026-05-07 17:21 58.03889 13.36475 24537 ft 442 kts 45°
2026-05-07 17:21 58.06008 13.40607 25025 ft 445 kts 45°
2026-05-07 17:21 58.08183 13.44856 25507 ft 449 kts 44°
2026-05-07 17:21 58.10353 13.49102 25970 ft 452 kts 44°
2026-05-07 17:22 58.12146 13.52618 26337 ft 454 kts 44°
2026-05-07 17:22 58.14354 13.56953 26778 ft 457 kts 44°
2026-05-07 17:22 58.16536 13.61248 27320 ft 457 kts 44°
2026-05-07 17:22 58.18749 13.65610 27888 ft 456 kts 45°
2026-05-07 17:23 58.20932 13.69921 28347 ft 458 kts 45°
2026-05-07 17:23 58.23132 13.74276 28753 ft 460 kts 45°
2026-05-07 17:23 58.25344 13.78662 29041 ft 462 kts 45°
2026-05-07 17:23 58.27587 13.83118 29063 ft 463 kts 45°
2026-05-07 17:24 58.32000 13.91908 29070 ft 463 kts 45°
2026-05-07 17:24 58.36453 14.00814 29078 ft 464 kts 45°
2026-05-07 17:25 58.40888 14.09720 29086 ft 464 kts 45°
2026-05-07 17:25 58.45327 14.18669 29091 ft 464 kts 45°
2026-05-07 17:26 58.49734 14.27588 29093 ft 464 kts 45°
2026-05-07 17:26 58.54149 14.36558 29094 ft 464 kts 45°
2026-05-07 17:27 58.58577 14.45592 29094 ft 464 kts 45°
2026-05-07 17:27 58.62972 14.54591 29094 ft 464 kts 45°
2026-05-07 17:28 58.67363 14.63619 29094 ft 464 kts 45°
2026-05-07 17:28 58.71728 14.72629 29094 ft 464 kts 46°
2026-05-07 17:29 58.76139 14.81770 29094 ft 464 kts 46°
2026-05-07 17:29 58.80505 14.90854 29091 ft 464 kts 46°
2026-05-07 17:30 58.84866 14.99965 29083 ft 465 kts 46°
2026-05-07 17:30 58.89240 15.09138 29075 ft 466 kts 46°
2026-05-07 17:31 58.93620 15.18360 29070 ft 466 kts 46°
2026-05-07 17:31 58.97980 15.27580 29068 ft 466 kts 46°
2026-05-07 17:32 59.02346 15.36848 29067 ft 466 kts 46°
2026-05-07 17:32 59.06665 15.46051 29096 ft 453 kts 47°
2026-05-07 17:33 59.08747 15.50497 29071 ft 439 kts 47°
2026-05-07 17:33 59.10784 15.54881 29045 ft 438 kts 47°
2026-05-07 17:33 59.14874 15.63681 29013 ft 438 kts 47°
2026-05-07 17:34 59.16914 15.68078 28908 ft 434 kts 48°
2026-05-07 17:34 59.18901 15.72367 28246 ft 435 kts 48°
2026-05-07 17:34 59.20958 15.76814 27060 ft 446 kts 48°
2026-05-07 17:34 59.23025 15.81291 26127 ft 449 kts 48°
2026-05-07 17:35 59.25111 15.85820 25556 ft 443 kts 48°
2026-05-07 17:35 59.27128 15.90209 25039 ft 436 kts 48°
2026-05-07 17:35 59.29142 15.94598 24470 ft 431 kts 48°
2026-05-07 17:35 59.31121 15.98921 23860 ft 428 kts 48°
2026-05-07 17:36 59.33093 16.03239 23222 ft 425 kts 48°
2026-05-07 17:36 59.35058 16.07548 22694 ft 420 kts 48°
2026-05-07 17:36 59.36980 16.11771 22176 ft 415 kts 48°
2026-05-07 17:36 59.38900 16.15999 21647 ft 411 kts 48°
2026-05-07 17:37 59.40771 16.20141 21078 ft 408 kts 49°
2026-05-07 17:37 59.42574 16.24459 20578 ft 402 kts 51°
2026-05-07 17:37 59.44282 16.28728 20125 ft 397 kts 52°
2026-05-07 17:37 59.45954 16.32945 19643 ft 392 kts 52°
2026-05-07 17:38 59.47620 16.37153 19147 ft 388 kts 52°
2026-05-07 17:38 59.49269 16.41321 18645 ft 385 kts 52°
2026-05-07 17:38 59.50903 16.45449 18146 ft 382 kts 52°
2026-05-07 17:38 59.52525 16.49553 17647 ft 378 kts 52°
2026-05-07 17:39 59.54113 16.53578 17156 ft 375 kts 51°
2026-05-07 17:39 59.55702 16.57612 16661 ft 372 kts 51°
2026-05-07 17:39 59.57296 16.61602 16166 ft 369 kts 49°
2026-05-07 17:39 59.59056 16.65264 15672 ft 366 kts 43°
2026-05-07 17:40 59.61002 16.68450 15183 ft 364 kts 37°
2026-05-07 17:40 59.63026 16.71364 14700 ft 361 kts 36°
2026-05-07 17:40 59.65060 16.74219 14215 ft 358 kts 36°
2026-05-07 17:40 59.67073 16.77048 13735 ft 355 kts 36°
2026-05-07 17:41 59.69075 16.79875 13254 ft 353 kts 36°
2026-05-07 17:41 59.71071 16.82707 12774 ft 350 kts 36°
2026-05-07 17:41 59.73025 16.85490 12303 ft 347 kts 36°
2026-05-07 17:41 59.74976 16.88277 11832 ft 345 kts 36°
2026-05-07 17:42 59.76891 16.91041 11363 ft 342 kts 38°
2026-05-07 17:42 59.78464 16.94515 11014 ft 335 kts 60°
2026-05-07 17:42 59.79180 16.98729 10989 ft 319 kts 84°
2026-05-07 17:42 59.79191 17.03056 10841 ft 307 kts 94°
2026-05-07 17:43 59.79006 17.07218 10657 ft 297 kts 96°
2026-05-07 17:43 59.78793 17.11208 10478 ft 287 kts 96°
2026-05-07 17:43 59.78580 17.15091 10303 ft 278 kts 96°
2026-05-07 17:43 59.78373 17.18841 10131 ft 269 kts 96°
2026-05-07 17:44 59.78171 17.22484 9871 ft 265 kts 96°
2026-05-07 17:44 59.77970 17.26105 9528 ft 264 kts 96°
2026-05-07 17:44 59.77770 17.29696 9188 ft 262 kts 96°
2026-05-07 17:44 59.77573 17.33249 8966 ft 256 kts 95°
2026-05-07 17:45 59.77632 17.36722 8788 ft 248 kts 80°
2026-05-07 17:45 59.77965 17.40019 8626 ft 240 kts 77°
2026-05-07 17:45 59.78343 17.43205 8377 ft 237 kts 76°
2026-05-07 17:45 59.78731 17.46385 8075 ft 236 kts 76°
2026-05-07 17:46 59.79115 17.49524 7776 ft 235 kts 76°
2026-05-07 17:46 59.79498 17.52644 7481 ft 234 kts 76°
2026-05-07 17:46 59.79884 17.55802 7182 ft 233 kts 76°
2026-05-07 17:46 59.80215 17.58910 6888 ft 232 kts 79°
2026-05-07 17:47 59.80476 17.62066 6593 ft 231 kts 81°
2026-05-07 17:47 59.80718 17.65194 6301 ft 230 kts 82°
2026-05-07 17:47 59.80960 17.68359 6006 ft 229 kts 82°
2026-05-07 17:47 59.81196 17.71463 5717 ft 228 kts 82°
2026-05-07 17:48 59.81431 17.74564 5429 ft 227 kts 82°
2026-05-07 17:48 59.81666 17.77657 5143 ft 226 kts 82°
2026-05-07 17:48 59.81862 17.80728 5002 ft 223 kts 89°
2026-05-07 17:48 59.81801 17.83831 4968 ft 222 kts 95°
2026-05-07 17:49 59.81650 17.86874 4676 ft 223 kts 96°
2026-05-07 17:49 59.81478 17.89961 4359 ft 223 kts 96°
2026-05-07 17:49 59.81305 17.92983 4081 ft 222 kts 97°
2026-05-07 17:49 59.80846 17.95904 3767 ft 222 kts 125°
2026-05-07 17:50 59.79689 17.97855 3470 ft 221 kts 156°
2026-05-07 17:50 59.78249 17.98849 3222 ft 218 kts 165°
2026-05-07 17:50 59.76812 17.99586 3062 ft 211 kts 167°
2026-05-07 17:50 59.75376 17.99859 2811 ft 210 kts 183°
2026-05-07 17:51 59.73923 17.99493 2478 ft 213 kts 192°
2026-05-07 17:51 59.72517 17.98808 2414 ft 200 kts 195°
2026-05-07 17:51 59.71223 17.98174 2415 ft 184 kts 192°
2026-05-07 17:51 59.70020 17.97728 2357 ft 168 kts 189°
2026-05-07 17:52 59.68875 17.97384 2063 ft 168 kts 188°
2026-05-07 17:52 59.67752 17.96988 1728 ft 164 kts 189°
2026-05-07 17:52 59.66576 17.96503 989 ft 185 kts 193°
2026-05-07 17:52 59.65270 17.96055 291 ft 191 kts 192°
2026-05-07 17:53 59.64059 17.95592 158 ft 163 kts 190°
2026-05-07 17:53 59.63050 17.95217 146 ft 125 kts 191°
2026-05-07 17:53 59.62524 17.94787 146 ft 43 kts 299°
2026-05-07 17:53 59.62508 17.94667 146 ft 0 kts 289°
2026-05-07 17:54 59.62508 17.94665 146 ft 2 kts 290°
2026-05-07 17:54 59.62590 17.94668 146 ft 23 kts 28°
2026-05-07 17:54 59.62641 17.94723 146 ft 0 kts 27°
2026-05-07 17:54 59.62642 17.94725 146 ft 2 kts 25°
2026-05-07 17:55 59.62746 17.94709 146 ft 24 kts
2026-05-07 17:55 59.62911 17.94759 146 ft 23 kts 12°
2026-05-07 17:55 59.63066 17.94817 146 ft 21 kts
2026-05-07 17:55 59.63212 17.94869 146 ft 20 kts 10°
2026-05-07 17:56 59.63351 17.94919 146 ft 20 kts 10°
2026-05-07 17:56 59.63487 17.94968 146 ft 19 kts 10°
2026-05-07 17:56 59.63620 17.95014 146 ft 19 kts 10°
2026-05-07 17:56 59.63747 17.95063 146 ft 18 kts 10°
2026-05-07 17:57 59.63875 17.95109 146 ft 18 kts 10°
2026-05-07 17:57 59.63961 17.95140 146 ft 19 kts 10°
2026-05-07 17:57 59.64142 17.95206 146 ft 19 kts 12°
2026-05-07 17:57 59.64279 17.95257 146 ft 20 kts
2026-05-07 17:58 59.64416 17.95306 146 ft 20 kts 10°
2026-05-07 17:58 59.64535 17.95282 146 ft 18 kts 295°
2026-05-07 17:58 59.64492 17.95056 146 ft 18 kts 237°
2026-05-07 17:58 59.64423 17.94841 146 ft 18 kts 239°
2026-05-07 17:59 59.64353 17.94617 146 ft 19 kts 238°
2026-05-07 17:59 59.64281 17.94392 146 ft 19 kts 238°
2026-05-07 17:59 59.64208 17.94164 146 ft 19 kts 237°
2026-05-07 17:59 59.64136 17.93943 146 ft 19 kts 239°
2026-05-07 18:00 59.64068 17.93723 146 ft 18 kts 236°
2026-05-07 18:00 59.64001 17.93503 146 ft 18 kts 248°
2026-05-07 18:00 59.63998 17.93265 146 ft 17 kts 291°
2026-05-07 18:00 59.64050 17.93045 146 ft 17 kts 299°
2026-05-07 18:01 59.64106 17.92837 146 ft 17 kts 298°
2026-05-07 18:01 59.64162 17.92623 146 ft 17 kts 298°
2026-05-07 18:01 59.64245 17.92484 146 ft 17 kts 19°
2026-05-07 18:01 59.64337 17.92623 146 ft 16 kts 45°
2026-05-07 18:02 59.64389 17.92729 146 ft 0 kts 46°
2026-05-07 18:02 59.64396 17.92744 146 ft 0 kts 46°